Time,TemperatureF,DewpointF,PressureIn,WindDirection,WindDirectionDegrees,WindSpeedMPH,WindSpeedGustMPH,Humidity,HourlyPrecipIn,Conditions,Clouds,dailyrainin,SoftwareType,DateUTC
2013-11-20 00:12:00,55.0,42.0,29.38,NNE,22,1.0,-999.0,62,0.00,,,0.00,,2013-11-20 08:12:00,
2013-11-20 00:21:00,55.0,42.0,29.38,NNE,22,1.0,-999.0,62,0.00,,,0.00,,2013-11-20 08:21:00,
2013-11-20 00:32:00,55.0,42.0,29.38,NNE,22,1.0,-999.0,62,0.00,,,0.00,,2013-11-20 08:32:00,
2013-11-20 00:42:00,55.0,42.0,29.38,NNE,22,1.0,-999.0,62,0.00,,,0.00,,2013-11-20 08:42:00,
2013-11-20 01:21:00,55.0,43.0,29.38,SW,229,1.0,-999.0,65,0.00,,,0.00,,2013-11-20 09:21:00,
2013-11-20 01:33:00,55.0,43.0,29.38,SW,229,1.0,-999.0,65,0.00,,,0.00,,2013-11-20 09:33:00,
2013-11-20 01:43:00,55.0,43.0,29.38,SW,229,1.0,-999.0,65,0.00,,,0.00,,2013-11-20 09:43:00,
2013-11-20 02:12:00,53.0,45.0,29.37,ESE,108,4.0,-999.0,73,0.00,,,-99.99,,2013-11-20 10:12:00,
2013-11-20 02:23:00,53.0,45.0,29.37,ESE,108,4.0,-999.0,73,0.00,,,-99.99,,2013-11-20 10:23:00,
2013-11-20 02:32:00,53.0,45.0,29.37,ESE,108,4.0,-999.0,73,0.00,,,-99.99,,2013-11-20 10:32:00,
2013-11-20 02:43:00,53.0,45.0,29.37,ESE,108,4.0,-999.0,73,0.00,,,-99.99,,2013-11-20 10:43:00,
2013-11-20 03:22:00,53.0,47.0,29.36,East,99,4.0,-999.0,80,0.00,,,0.00,,2013-11-20 11:22:00,
2013-11-20 03:33:00,53.0,47.0,29.36,East,99,4.0,-999.0,80,0.00,,,0.00,,2013-11-20 11:33:00,
2013-11-20 03:42:00,53.0,47.0,29.36,East,99,4.0,-999.0,80,0.00,,,0.00,,2013-11-20 11:42:00,
2013-11-20 04:22:00,52.0,48.0,29.34,SSE,164,7.0,-999.0,84,0.00,,,-99.99,,2013-11-20 12:22:00,
2013-11-20 04:32:00,52.0,48.0,29.34,SSE,164,7.0,-999.0,84,0.00,,,-99.99,,2013-11-20 12:32:00,
2013-11-20 04:42:00,52.0,48.0,29.34,SSE,164,7.0,-999.0,84,0.00,,,-99.99,,2013-11-20 12:42:00,
2013-11-20 05:21:00,52.0,48.0,29.35,ENE,64,2.0,-999.0,87,0.01,,,0.01,,2013-11-20 13:21:00,
2013-11-20 05:32:00,52.0,48.0,29.35,ENE,64,2.0,-999.0,87,0.01,,,0.01,,2013-11-20 13:32:00,
2013-11-20 05:42:00,52.0,48.0,29.35,ENE,64,2.0,-999.0,87,0.01,,,0.01,,2013-11-20 13:42:00,
2013-11-20 06:22:00,52.0,48.0,29.34,NW,306,4.0,-999.0,88,0.00,,,0.01,,2013-11-20 14:22:00,
2013-11-20 06:32:00,52.0,48.0,29.34,NW,306,4.0,-999.0,88,0.00,,,0.01,,2013-11-20 14:32:00,
2013-11-20 06:42:00,52.0,48.0,29.34,NW,306,4.0,-999.0,88,0.00,,,0.01,,2013-11-20 14:42:00,
2013-11-20 07:11:00,52.0,49.0,29.34,West,272,4.0,-999.0,88,0.00,,,-99.99,,2013-11-20 15:11:00,
2013-11-20 07:21:00,52.0,49.0,29.34,West,272,4.0,-999.0,88,0.00,,,-99.99,,2013-11-20 15:21:00,
2013-11-20 07:33:00,52.0,49.0,29.34,West,272,4.0,-999.0,88,0.00,,,-99.99,,2013-11-20 15:33:00,
2013-11-20 07:43:00,52.0,49.0,29.34,West,272,4.0,-999.0,88,0.00,,,-99.99,,2013-11-20 15:43:00,
2013-11-20 08:23:00,52.0,49.0,29.35,SE,146,4.0,-999.0,88,0.00,,,0.01,,2013-11-20 16:23:00,
2013-11-20 08:34:00,52.0,49.0,29.35,SE,146,4.0,-999.0,88,0.00,,,0.01,,2013-11-20 16:34:00,
2013-11-20 08:43:00,52.0,49.0,29.35,SE,146,4.0,-999.0,88,0.00,,,0.01,,2013-11-20 16:43:00,
2013-11-20 09:22:00,58.0,51.0,29.35,North,-999,-999.0,-999.0,76,0.00,,,0.01,,2013-11-20 17:22:00,
2013-11-20 09:33:00,58.0,51.0,29.35,North,-999,-999.0,-999.0,76,0.00,,,0.01,,2013-11-20 17:33:00,
2013-11-20 09:42:00,58.0,51.0,29.35,North,-999,-999.0,-999.0,76,0.00,,,0.01,,2013-11-20 17:42:00,
2013-11-20 10:21:00,60.0,50.0,29.35,SE,125,2.0,-999.0,70,0.00,,,0.01,,2013-11-20 18:21:00,
2013-11-20 10:32:00,60.0,50.0,29.35,SE,125,2.0,-999.0,70,0.00,,,0.01,,2013-11-20 18:32:00,
2013-11-20 10:42:00,60.0,50.0,29.35,SE,125,2.0,-999.0,70,0.00,,,0.01,,2013-11-20 18:42:00,
2013-11-20 11:11:00,67.0,48.0,29.32,NNW,333,3.0,-999.0,52,0.00,,,0.01,,2013-11-20 19:11:00,
2013-11-20 11:21:00,67.0,48.0,29.32,NNW,333,3.0,-999.0,52,0.00,,,0.01,,2013-11-20 19:21:00,
2013-11-20 11:32:00,67.0,48.0,29.32,NNW,333,3.0,-999.0,52,0.00,,,0.01,,2013-11-20 19:32:00,
2013-11-20 11:42:00,67.0,48.0,29.32,NNW,333,3.0,-999.0,52,0.00,,,0.01,,2013-11-20 19:42:00,
2013-11-20 12:21:00,64.0,47.0,29.29,SW,224,5.0,-999.0,53,0.01,,,-99.99,,2013-11-20 20:21:00,
2013-11-20 12:32:00,64.0,47.0,29.29,SW,224,5.0,-999.0,53,0.01,,,-99.99,,2013-11-20 20:32:00,
2013-11-20 12:42:00,64.0,47.0,29.29,SW,224,5.0,-999.0,53,0.01,,,-99.99,,2013-11-20 20:42:00,
2013-11-20 13:11:00,71.0,46.0,29.26,NW,312,4.0,-999.0,42,0.00,,,0.02,,2013-11-20 21:11:00,
2013-11-20 13:21:00,71.0,46.0,29.26,NW,312,4.0,-999.0,42,0.00,,,0.02,,2013-11-20 21:21:00,
2013-11-20 13:33:00,71.0,46.0,29.26,NW,312,4.0,-999.0,42,0.00,,,0.02,,2013-11-20 21:33:00,
2013-11-20 13:43:00,71.0,46.0,29.26,NW,312,4.0,-999.0,42,0.00,,,0.02,,2013-11-20 21:43:00,
2013-11-20 14:23:00,68.0,46.0,29.24,SSE,163,3.0,-999.0,45,0.00,,,0.02,,2013-11-20 22:23:00,
2013-11-20 14:32:00,68.0,46.0,29.24,SSE,163,3.0,-999.0,45,0.00,,,0.02,,2013-11-20 22:32:00,
2013-11-20 14:42:00,68.0,46.0,29.24,SSE,163,3.0,-999.0,45,0.00,,,0.02,,2013-11-20 22:42:00,
2013-11-20 15:12:00,67.0,46.0,29.23,SSE,151,3.0,-999.0,46,0.00,,,0.02,,2013-11-20 23:12:00,
2013-11-20 15:21:00,67.0,46.0,29.23,SSE,151,3.0,-999.0,46,0.00,,,0.02,,2013-11-20 23:21:00,
2013-11-20 15:32:00,67.0,46.0,29.23,SSE,151,3.0,-999.0,46,0.00,,,0.02,,2013-11-20 23:32:00,
2013-11-20 15:42:00,67.0,46.0,29.23,SSE,151,3.0,-999.0,46,0.00,,,0.02,,2013-11-20 23:42:00,
2013-11-20 16:11:00,67.0,46.0,29.23,SW,216,2.0,-999.0,47,0.00,,,0.02,,2013-11-21 00:11:00,
2013-11-20 16:21:00,67.0,46.0,29.23,SW,216,2.0,-999.0,47,0.00,,,0.02,,2013-11-21 00:21:00,
2013-11-20 16:32:00,67.0,46.0,29.23,SW,216,2.0,-999.0,47,0.00,,,0.02,,2013-11-21 00:32:00,
2013-11-20 16:42:00,67.0,46.0,29.23,SW,216,2.0,-999.0,47,0.00,,,0.02,,2013-11-21 00:42:00,
2013-11-20 17:11:00,64.0,47.0,29.23,West,269,1.0,-999.0,55,0.00,,,0.02,,2013-11-21 01:11:00,
2013-11-20 17:22:00,64.0,47.0,29.23,West,269,1.0,-999.0,55,0.00,,,0.02,,2013-11-21 01:22:00,
2013-11-20 17:32:00,64.0,47.0,29.23,West,269,1.0,-999.0,55,0.00,,,0.02,,2013-11-21 01:32:00,
2013-11-20 17:42:00,64.0,47.0,29.23,West,269,1.0,-999.0,55,0.00,,,0.02,,2013-11-21 01:42:00,
2013-11-20 18:21:00,61.0,49.0,29.22,SE,136,7.0,-999.0,64,0.00,,,0.02,,2013-11-21 02:21:00,
2013-11-20 18:32:00,61.0,49.0,29.22,SE,136,7.0,-999.0,64,0.00,,,0.02,,2013-11-21 02:32:00,
2013-11-20 18:42:00,61.0,49.0,29.22,SE,136,7.0,-999.0,64,0.00,,,0.02,,2013-11-21 02:42:00,
2013-11-20 19:11:00,60.0,47.0,29.22,East,100,5.0,-999.0,63,0.00,,,0.02,,2013-11-21 03:11:00,
2013-11-20 19:21:00,60.0,47.0,29.22,East,100,5.0,-999.0,63,0.00,,,0.02,,2013-11-21 03:21:00,
2013-11-20 19:33:00,60.0,47.0,29.22,East,100,5.0,-999.0,63,0.00,,,0.02,,2013-11-21 03:33:00,
2013-11-20 19:43:00,60.0,47.0,29.22,East,100,5.0,-999.0,63,0.00,,,0.02,,2013-11-21 03:43:00,
2013-11-20 20:23:00,58.0,48.0,29.23,SE,140,5.0,-999.0,69,0.00,,,0.02,,2013-11-21 04:23:00,
2013-11-20 20:33:00,58.0,48.0,29.23,SE,140,5.0,-999.0,69,0.00,,,0.02,,2013-11-21 04:33:00,
2013-11-20 20:43:00,58.0,48.0,29.23,SE,140,5.0,-999.0,69,0.00,,,0.02,,2013-11-21 04:43:00,
2013-11-20 21:22:00,56.0,52.0,29.27,NW,314,12.0,-999.0,86,0.05,,,0.07,,2013-11-21 05:22:00,
2013-11-20 21:32:00,56.0,52.0,29.27,NW,314,12.0,-999.0,86,0.05,,,0.07,,2013-11-21 05:32:00,
2013-11-20 21:42:00,56.0,52.0,29.27,NW,314,12.0,-999.0,86,0.05,,,0.07,,2013-11-21 05:42:00,
2013-11-20 22:22:00,55.0,53.0,29.27,SSW,207,5.0,-999.0,94,0.18,,,0.25,,2013-11-21 06:22:00,
2013-11-20 22:33:00,55.0,53.0,29.27,SSW,207,5.0,-999.0,94,0.18,,,0.25,,2013-11-21 06:33:00,
2013-11-20 22:42:00,55.0,53.0,29.27,SSW,207,5.0,-999.0,94,0.18,,,0.25,,2013-11-21 06:42:00,
2013-11-20 23:22:00,54.0,53.0,29.25,SSE,162,11.0,-999.0,96,0.16,,,0.41,,2013-11-21 07:22:00,
2013-11-20 23:33:00,54.0,53.0,29.25,SSE,162,11.0,-999.0,96,0.16,,,0.41,,2013-11-21 07:33:00,
2013-11-20 23:42:00,54.0,53.0,29.25,SSE,162,11.0,-999.0,96,0.16,,,0.41,,2013-11-21 07:42:00,